Regional Weather Roundup
Issued by NWS Albany, NY

Home | Current Version | Previous Version | Text Only | Print | Product List | Glossary On
Versions: 1 2 3 4 5 6 7 8 9 10 11 12 13 14 15 16 17 18 19 20 21 22 23 24 25 26 27
000
ASUS41 KALY 281610
RWRALY

NEW YORK STATE HOURLY WEATHER ROUNDUP
NATIONAL WEATHER SERVICE ALBANY NY
1200 PM EDT SUN AUG 28 2016

NOTE: "FAIR" INDICATES FEW OR NO CLOUDS BELOW 12,000 FEET WITH NO
SIGNIFICANT WEATHER AND/OR NO OBSTRUCTIONS TO VISIBILITY.

NYZ032-033-038>043-046>054-057>066-NYZ062>081-082-084-281700-
EAST


CITY           SKY/WX    TMP DP  RH WIND       PRES   REMARKS
ALBANY         MOSUNNY   81  62  52 S9        30.21F
GLENS FALLS    SUNNY     79  65  62 S12       30.20F
POUGHKEEPSIE   SUNNY     81  60  48 S7        30.24F
NEWBURGH       SUNNY     81  66  61 SW7       30.28F
MONTGOMERY     SUNNY     82  62  50 S8        30.26F
WHITE PLAINS   MOSUNNY   82  63  52 MISG      30.27F
ISLIP          MOSUNNY   83  55  38 SE10      30.26F
NEW YORK CITY  MOSUNNY   85  57  38 SW5       30.25F
CENTRAL PARK   MOSUNNY   85  64  49 MISG      30.28F
$$

NYZ005>009-017-018-044>046-055-056-281700-
CENTRAL


CITY           SKY/WX    TMP DP  RH WIND       PRES   REMARKS
FULTON         MOSUNNY   82  69  64 S7        30.15F
SYRACUSE       PTSUNNY   84  69  60 S10       30.15F
ROME           SUNNY     82  68  62 S8        30.17F
ELMIRA         PTSUNNY   82  66  58 W8        30.19F
BINGHAMTON     SUNNY     78  63  59 SW14G22   30.25F
MONTICELLO     MOSUNNY   79  61  53 S8        30.31F
$$

NYZ026>034-041>043-087-281700-
NORTH


CITY           SKY/WX    TMP DP  RH WIND       PRES   REMARKS
WATERTOWN      PTSUNNY   84  67  56 SW12      30.12F
FORT DRUM      NOT AVBL
MASSENA        CLOUDY    79  67  66 CALM      30.11F
SARANAC LAKE   MOSUNNY   81  63  54 SW16      30.17F
PLATTSBURGH    CLOUDY    78  66  66 S7        30.12F
$$

NYZ001>004-010>016-019>021-085-281700-
WEST


CITY           SKY/WX    TMP DP  RH WIND       PRES   REMARKS
NIAGARA FALLS  PTSUNNY   85  69  58 S12       30.15F
BUFFALO        PTSUNNY   81  72  74 W15       30.17F
DUNKIRK        MOSUNNY   82  72  71 W8        30.19F
JAMESTOWN      MOSUNNY   79  68  69 SW7       30.24F
WELLSVILLE     PTSUNNY   80  67  64 S8        30.28S
ROCHESTER      PTSUNNY   85  69  58 W10       30.15F
PENN YAN       SUNNY     85  68  56 SW12      30.18F
$$

             KEY
       WCI = WIND CHILL INDEX
       VSB = VISIBILITY
       HX  = HEAT INDEX
$$




USA.gov is the U.S. government's official web portal to all federal, state and local government web resources and services.